#datint,netname,site,siteID,timestamp,IntT,BattV,AirT2,AirT,AirT_Avg,AirT_Max,AirT_Min,RH_Avg,RH_Max,RH_Min,EA_Avg,Td_Avg,Td_Max,Td_Min,WindS_Smp,WindS_Avg,WindD_Avg,WindD_SD,WindS_Max,ETo,ETr,SoilT4,SoilT8,SoilVWC8,SolarW_Avg,wetstate_Avg,wetT_Avg,Precip_accum,Precip_WPG,Precip_TB
15min,AgWx,beryljct,423,09FEB2018:00:00:00,30.1,12.84,28.1,28.8,29.3,30.6,28.3,74,79,71,0.422,22.1,23.1,21.6,4.45,2.1,294,81,5.2,-0.00009,-0.00011,40.3,42.6,21,0,0,35.7,12.06,0.00,0.00
15min,AgWx,beryljct,423,09FEB2018:00:15:00,29.7,12.81,27.0,27.3,28.1,28.7,27.3,82,83,79,0.421,23.3,23.6,22.8,2.959,3.9,140,20,5.5,-0.00005,-0.00006,40.1,42.6,22,0,0,35.6,12.06,0.00,0.00
15min,AgWx,beryljct,423,09FEB2018:00:30:00,29.3,12.82,28.6,28.9,27.9,29.2,27.2,84,86,80,0.430,23.7,24.2,23.0,2.696,2.7,125,22,3.7,-0.00009,-0.00011,39.9,42.6,21,0,0,35.7,12.06,0.00,0.00
15min,AgWx,beryljct,423,09FEB2018:00:45:00,29.0,12.81,29.1,29.5,28.6,29.5,27.5,78,82,74,0.409,22.6,23.7,21.9,4.341,4.0,200,10,5.0,-0.00004,-0.00004,39.6,42.5,21,0,0,35.5,12.06,0.00,0.00
15min,AgWx,beryljct,423,09FEB2018:01:00:00,28.9,12.82,30.7,31.4,30.6,32.2,29.6,72,75,68,0.415,22.7,23.3,22.2,2.302,4.3,203,5.7,5.1,-0.00001,-0.00000,39.3,42.4,21,0,0,35.7,12.06,0.00,0.00
15min,AgWx,beryljct,423,09FEB2018:01:15:00,28.8,12.8,28.4,28.8,29.8,32.0,28.8,74,76,70,0.406,22.4,23.7,21.8,4.319,2.7,164,12,4.3,-0.00007,-0.00007,39.1,42.3,22,0,0,35.7,12.06,0.00,0.00
15min,AgWx,beryljct,423,09FEB2018:01:30:00,28.6,12.79,29.4,29.9,28.7,29.9,28.2,75,76,70,0.394,21.6,22.2,21.3,2.521,2.3,174,8.5,4.2,-0.00009,-0.00010,38.9,42.2,22,0,0,35.8,12.06,0.00,0.00
15min,AgWx,beryljct,423,09FEB2018:01:45:00,28.3,12.79,34.4,35.3,29.5,35.3,27.8,73,77,62,0.435,21.9,24.3,20.8,3.464,3.1,194,14,5.3,-0.00005,-0.00005,38.5,42.2,22,0,0,35.7,12.06,0.00,0.00
15min,AgWx,beryljct,423,09FEB2018:02:00:00,28.5,12.79,30.4,31.8,33.3,35.7,31.6,65,71,60,0.390,23.0,24.0,21.0,0.088,2.1,233,30,3.7,-0.00008,-0.00009,38.4,42.2,21,0,0,35.6,12.06,0.00,0.00
15min,AgWx,beryljct,423,09FEB2018:02:15:00,28.4,12.79,34.0,34.8,30.9,34.8,28.2,71,79,63,0.433,22.6,24.5,20.0,1.863,1.4,239,42,2.5,-0.00013,-0.00017,38.1,42.1,21,0,0,35.7,12.06,0.00,0.00
15min,AgWx,beryljct,423,09FEB2018:02:30:00,28.7,12.78,27.6,28.1,33.9,38.3,28.1,64,78,55,0.405,22.8,23.8,21.7,1.798,1.9,171,35,3.9,-0.00009,-0.00010,37.9,42.0,22,0,0,35.7,12.06,0.00,0.00
15min,AgWx,beryljct,423,09FEB2018:02:45:00,28.3,12.76,26.1,26.7,27.3,28.0,26.7,81,83,78,0.407,22.2,22.4,21.9,0.417,0.9,139,6.1,3.6,-0.00016,-0.00022,37.7,42.0,22,0,0,35.5,12.06,0.00,0.00
15min,AgWx,beryljct,423,09FEB2018:03:00:00,27.8,12.75,25.8,26.2,26.3,26.7,25.9,84,85,83,0.403,22.1,22.3,21.7,0,0.9,138,8.1,2.5,-0.00016,-0.00022,37.5,41.8,22,0,0,35.7,12.06,0.00,0.00
15min,AgWx,beryljct,423,09FEB2018:03:15:00,27.2,12.75,26.1,26.3,26.6,26.9,26.3,81,84,80,0.396,21.7,22.2,21.2,3.683,1.2,153,2.8,3.9,-0.00014,-0.00019,37.5,41.7,22,0,0,35.4,12.06,0.00,0.00
15min,AgWx,beryljct,423,09FEB2018:03:30:00,26.7,12.74,25.2,25.6,25.6,26.7,25.1,83,84,80,0.393,21.2,21.6,20.9,4.516,3.3,155,7.2,4.9,-0.00007,-0.00008,37.3,41.7,22,0,0,35.4,12.06,0.00,0.00
15min,AgWx,beryljct,423,09FEB2018:03:45:00,26.3,12.73,24.6,25.0,25.2,26.1,24.9,85,87,82,0.396,21.5,21.8,20.8,0,2.5,119,19,4.5,-0.00009,-0.00011,37.2,41.6,22,0,0,35.6,12.06,0.00,0.00
15min,AgWx,beryljct,423,09FEB2018:04:00:00,25.9,12.72,26.0,26.3,25.2,26.3,24.6,86,87,85,0.412,21.7,22.6,21.1,0,0.5,235,0.2,2.2,-0.00017,-0.00025,37.0,41.5,22,0,0,35.6,12.06,0.00,0.00
15min,AgWx,beryljct,423,09FEB2018:04:15:00,25.5,12.7,25.1,25.7,25.6,26.4,25.2,84,85,82,0.400,21.3,22.6,20.8,0,0.3,306,15,2.3,-0.00019,-0.00029,36.8,32.0,0,0,0,35.7,12.06,0.00,0.00
15min,AgWx,beryljct,423,09FEB2018:04:30:00,25.2,12.7,27.5,28.0,26.9,28.2,25.7,82,85,77,0.403,22.1,22.5,21.7,2.499,1.5,314,0.4,2.8,-0.00013,-0.00017,36.6,41.3,22,0,0,35.6,12.06,0.00,0.00
15min,AgWx,beryljct,423,09FEB2018:04:45:00,25.2,12.69,24.4,24.7,26.6,28.2,24.7,81,85,77,0.386,21.5,22.6,20.0,4.341,3.1,200,71,4.6,-0.00007,-0.00008,36.5,41.2,22,0,0,35.5,12.06,0.00,0.00
15min,AgWx,beryljct,423,09FEB2018:05:00:00,25.1,12.69,25.4,25.8,25.6,25.9,24.7,82,86,80,0.385,20.9,21.9,20.1,2.499,3.1,184,6.8,4.9,-0.00007,-0.00008,36.4,41.1,22,0,0,35.9,12.06,0.00,0.00
15min,AgWx,beryljct,423,09FEB2018:05:15:00,25.0,12.69,28.1,28.3,27.9,28.8,25.9,77,82,74,0.401,21.6,22.4,21.0,0.526,2.3,174,36,4.7,-0.00009,-0.00010,36.3,41.1,22,0,0,35.8,12.06,0.00,0.00
15min,AgWx,beryljct,423,09FEB2018:05:30:00,25.1,12.65,23.1,23.4,26.5,29.6,23.4,78,82,72,0.353,20.6,22.5,18.8,3.442,2.6,17,64,5.9,-0.00008,-0.00009,36.1,41.0,22,0,0,35.6,12.06,0.00,0.00
15min,AgWx,beryljct,423,09FEB2018:05:45:00,24.9,12.67,24.9,25.2,24.2,25.2,23.3,83,84,80,0.384,19.7,20.8,19.1,3.529,2.7,305,11,3.5,-0.00008,-0.00009,36.0,40.9,22,0,0,35.7,12.06,0.00,0.00
15min,AgWx,beryljct,423,09FEB2018:06:00:00,25.1,12.66,27.9,28.1,28.8,30.3,25.3,77,84,71,0.401,22.5,24.0,20.9,2.85,2.3,232,68,4.1,-0.00009,-0.00011,35.8,40.8,22,0,0,35.5,12.06,0.00,0.00
15min,AgWx,beryljct,423,09FEB2018:06:15:00,25.3,12.66,24.4,24.9,25.3,28.1,24.3,84,87,77,0.394,21.2,21.8,20.8,2.214,2.8,99,26,4.6,-0.00008,-0.00010,35.8,40.8,22,0,0,35.6,12.06,0.00,0.00
15min,AgWx,beryljct,423,09FEB2018:06:30:00,25.3,12.65,24.7,25.0,25.1,25.3,24.8,86,87,86,0.397,21.6,21.8,21.3,0,0.3,128,0.3,2.2,-0.00018,-0.00028,35.7,40.7,22,0,0,35.7,12.06,0.00,0.00
15min,AgWx,beryljct,423,09FEB2018:06:45:00,25.3,12.64,26.0,26.5,25.8,26.6,25.0,85,87,80,0.392,21.9,22.2,21.2,3.332,1.0,29,17,3.9,-0.00015,-0.00021,35.6,40.6,22,0,0,35.7,12.06,0.00,0.00
15min,AgWx,beryljct,423,09FEB2018:07:00:00,25.2,12.63,24.6,25.0,24.9,26.5,23.8,84,87,80,0.396,20.6,21.5,19.7,3.354,2.9,298,39,3.8,0.00007,0.00012,35.5,40.5,22,0,0,35.3,12.06,0.00,0.00
15min,AgWx,beryljct,423,09FEB2018:07:15:00,25.0,12.63,25.1,25.5,25.5,26.0,25.0,85,87,82,0.387,21.7,22.4,20.8,0.285,1.6,313,25,3.3,0.00004,0.00007,35.3,40.4,22,0,0,35.7,12.07,0.00,0.00
15min,AgWx,beryljct,423,09FEB2018:07:30:00,24.9,12.52,27.5,28.0,26.2,28.1,24.7,83,85,78,0.406,21.7,22.7,20.3,1.622,2.2,259,30,3.9,0.00008,0.00012,35.1,40.3,22,6,0,35.8,12.06,0.00,0.00
15min,AgWx,beryljct,423,09FEB2018:07:45:00,25.1,12.75,28.1,28.5,27.8,28.5,27.2,79,82,77,0.427,22.3,23.3,21.6,1.841,1.6,243,1.7,2.7,0.00016,0.00021,35.1,40.3,22,29,0,35.6,12.06,0.00,0.00
15min,AgWx,beryljct,423,09FEB2018:08:00:00,25.8,12.9,29.4,29.7,29.3,30.1,28.4,78,80,75,0.431,23.3,23.8,23.0,2.214,1.6,224,35,3.3,0.00027,0.00032,35.0,40.2,22,62,0,35.6,12.06,0.00,0.00
15min,AgWx,beryljct,423,09FEB2018:08:15:00,27.6,13.21,31.0,31.1,30.0,31.3,29.0,77,79,73,0.431,23.6,24.3,22.9,3.595,3.5,93,79,10.8,0.00041,0.00052,35.0,40.1,21,103,0,35.8,12.07,0.00,0.00
15min,AgWx,beryljct,423,09FEB2018:08:30:00,30.7,13.69,32.5,32.1,31.7,32.1,31.1,73,75,71,0.444,23.9,25.0,22.7,2.543,2.2,0.5,44,4.9,0.00056,0.00066,34.9,40.1,21,151,0,36.7,12.07,0.00,0.00
15min,AgWx,beryljct,423,09FEB2018:08:45:00,33.9,14.07,33.7,34.0,33.5,34.7,32.1,72,74,69,0.478,25.3,26.4,24.1,2.565,3.2,88,16,4.4,0.00070,0.00085,34.8,40.0,22,179,0,38.6,12.07,0.00,0.00
15min,AgWx,beryljct,423,09FEB2018:09:00:00,37.3,14.38,36.4,36.2,35.3,36.3,34.0,70,73,66,0.488,26.5,27.2,26.0,0,1.1,169,22,2.7,0.00086,0.00096,34.7,39.9,22,225,0,41.9,12.07,0.00,0.00
15min,AgWx,beryljct,423,09FEB2018:09:15:00,41.5,14.71,39.2,38.3,37.8,38.5,36.3,65,68,64,0.513,27.2,27.8,26.4,1.425,0.9,64,35,2.7,0.00111,0.00123,34.8,39.9,22,278,0,46.0,12.07,0.00,0.00
15min,AgWx,beryljct,423,09FEB2018:09:30:00,45.7,14.66,41.1,40.9,39.4,40.9,38.1,63,65,60,0.531,28.0,28.8,27.3,0.899,1.1,309,70,2.6,0.00134,0.00149,34.7,39.8,22,324,0,49.4,12.07,0.00,0.00
15min,AgWx,beryljct,423,09FEB2018:09:45:00,48.9,14.6,42.6,43.8,42.2,43.9,41.0,59,62,54,0.527,28.9,29.8,28.1,1.425,2.3,140,24,3.6,0.00160,0.00183,34.7,39.7,22,357,0,50.8,12.07,0.00,0.00
15min,AgWx,beryljct,423,09FEB2018:10:00:00,51.7,14.58,46.0,46.4,45.1,46.5,43.7,53,55,49,0.531,29.1,30.2,28.3,2.17,2.3,122,18,3.7,0.00188,0.00216,34.8,39.7,21,397,0,53.3,12.07,0.00,0.00
15min,AgWx,beryljct,423,09FEB2018:10:15:00,54.3,14.52,50.0,50.9,48.9,50.9,46.5,45,50,41,0.537,28.5,29.7,26.9,3.924,3.4,126,15,4.9,0.00226,0.00269,35.1,39.5,22,435,0,56.6,12.07,0.00,0.00
15min,AgWx,beryljct,423,09FEB2018:10:30:00,57.1,14.45,53.6,54.3,52.8,54.5,50.8,40,43,37,0.539,29.4,30.5,28.4,2.302,3.5,127,19,5.9,0.00259,0.00311,35.7,39.5,22,466,0,60.0,12.07,0.00,0.00
15min,AgWx,beryljct,423,09FEB2018:10:45:00,60.2,14.37,59.5,59.7,56.5,59.7,54.2,34,38,29,0.506,28.3,29.7,26.8,0,1.6,117,17,3.8,0.00277,0.00316,36.2,39.5,21,496,0,65.5,12.07,0.00,0.00
15min,AgWx,beryljct,423,09FEB2018:11:00:00,64.4,14.31,61.6,62.3,61.0,62.4,59.6,24,28,19,0.366,24.1,26.9,19.7,9.67,2.4,274,28,12.3,0.00318,0.00372,36.9,39.4,21,527,0,71.9,12.07,0.00,0.00
15min,AgWx,beryljct,423,09FEB2018:11:15:00,66.2,14.28,62.3,62.8,62.2,62.8,61.6,20,22,18,0.365,20.2,22.8,17.9,13.11,9.5,271,15,13.8,0.00420,0.00572,37.7,39.4,22,559,0,66.8,12.07,0.00,0.00
15min,AgWx,beryljct,423,09FEB2018:11:30:00,66.8,14.24,62.7,63.3,63.0,63.9,62.2,18,19,16,0.333,18.3,20.0,16.4,19.49,14.5,271,12,19.5,0.00479,0.00686,38.7,39.3,22,572,0,66.2,12.07,0.00,0.00
15min,AgWx,beryljct,423,09FEB2018:11:45:00,66.9,13.88,62.5,63.3,63.2,63.7,62.8,17,18,16,0.319,17.4,18.7,16.1,16.22,14.8,277,12,18.4,0.00479,0.00692,39.5,39.3,21,548,0,66.4,12.06,0.00,0.00
15min,AgWx,beryljct,423,09FEB2018:12:00:00,66.7,13.84,63.0,63.4,63.3,63.7,62.6,16,17,14,0.306,15.8,18.3,13.7,13.55,14.3,275,12,18.7,0.00468,0.00679,40.2,39.2,22,520,0,66.1,12.06,0.00,0.00
15min,AgWx,beryljct,423,09FEB2018:12:15:00,67.0,13.83,63.7,64.4,64.0,64.7,63.4,14,15,13,0.275,14.0,16.0,11.7,16.11,14.0,274,13,18.4,0.00508,0.00723,41.0,39.1,21,613,0,67.6,12.06,0.00,0.00
15min,AgWx,beryljct,423,09FEB2018:12:30:00,67.3,13.86,63.4,63.9,64.2,65.1,63.1,14,16,13,0.292,14.7,17.4,12.3,13.85,14.0,274,10,18.1,0.00489,0.00704,41.7,39.2,22,558,0,68.4,12.06,0.00,0.00
15min,AgWx,beryljct,423,09FEB2018:12:45:00,67.7,13.81,64.2,65.1,64.8,65.7,63.9,14,15,13,0.285,14.6,16.3,12.8,10.26,13.2,269,12,17.1,0.00526,0.00738,42.5,39.2,22,661,0,70.6,12.06,0.00,0.00
15min,AgWx,beryljct,423,09FEB2018:13:00:00,68.1,13.84,64.0,64.3,64.6,65.4,63.7,14,15,14,0.284,15.1,16.8,13.5,14.62,13.8,279,15,18.0,0.00480,0.00693,43.1,39.3,22,539,0,70.4,12.06,0.00,0.00
15min,AgWx,beryljct,423,09FEB2018:13:15:00,68.4,13.79,65.6,65.7,65.0,66.2,64.1,13,15,12,0.282,13.4,16.0,11.5,12.34,14.1,280,11,18.1,0.00533,0.00757,43.8,39.3,21,652,0,70.1,12.06,0.00,0.00
15min,AgWx,beryljct,423,09FEB2018:13:30:00,68.7,13.8,64.9,65.3,65.2,65.8,64.6,13,15,12,0.274,13.2,15.8,11.4,16.73,13.1,262,16,17.3,0.00482,0.00694,44.6,39.4,22,559,0,69.6,12.06,0.00,0.00
15min,AgWx,beryljct,423,09FEB2018:13:45:00,69.1,13.76,64.4,64.9,65.1,66.1,64.6,13,14,12,0.271,13.3,15.5,12.0,14.82,15.1,279,14,19.4,0.00529,0.00763,45.1,39.5,22,621,0,69.8,12.06,0.00,0.00
15min,AgWx,beryljct,423,09FEB2018:14:00:00,69.3,13.76,64.7,64.9,65.0,65.7,64.3,13,15,13,0.303,13.7,15.4,12.1,14.29,14.3,254,12,17.2,0.00483,0.00704,45.7,39.6,22,548,0,70.1,12.06,0.00,0.00
15min,AgWx,beryljct,423,09FEB2018:14:15:00,69.1,13.76,65.1,65.6,65.0,65.8,64.5,14,15,13,0.278,14.3,16.2,12.9,10.94,12.4,249,14,18.6,0.00456,0.00658,46.3,39.7,22,535,0,69.2,12.06,0.00,0.00
15min,AgWx,beryljct,423,09FEB2018:14:30:00,69.4,13.77,65.1,65.7,65.7,66.4,65.1,14,15,13,0.283,14.8,16.5,12.9,11.95,11.5,260,16,15.4,0.00458,0.00653,46.8,39.8,21,547,0,70.3,12.06,0.00,0.00
15min,AgWx,beryljct,423,09FEB2018:14:45:00,69.6,13.76,65.2,65.5,65.3,66.2,64.5,14,15,13,0.295,14.2,16.0,12.9,11.75,12.8,260,24,19.4,0.00443,0.00650,47.3,39.9,22,495,0,69.5,12.06,0.00,0.00
15min,AgWx,beryljct,423,09FEB2018:15:00:00,69.8,13.76,65.0,65.1,65.6,66.7,65.1,13,15,12,0.284,13.6,15.8,11.9,8.4,12.0,263,21,16.1,0.00443,0.00644,47.8,40.1,22,505,0,70.7,12.06,0.00,0.00
15min,AgWx,beryljct,423,09FEB2018:15:15:00,69.6,13.77,64.7,64.9,65.1,65.9,64.4,13,14,12,0.266,13.0,15.4,11.5,16.92,14.5,266,17,20.8,0.00405,0.00626,48.2,40.2,22,385,0,69.6,12.06,0.00,0.00
15min,AgWx,beryljct,423,09FEB2018:15:30:00,68.9,13.79,63.9,64.1,64.3,65.1,63.9,13,14,12,0.285,12.9,14.6,11.6,10.98,12.8,274,12,18.5,0.00323,0.00521,48.6,40.4,22,249,0,67.7,12.06,0.00,0.00
15min,AgWx,beryljct,423,09FEB2018:15:45:00,67.7,13.81,63.4,63.6,63.8,64.2,63.4,13,14,12,0.260,12.3,13.9,10.9,12.63,11.9,264,13,16.0,0.00283,0.00467,48.8,40.6,22,182,0,66.2,12.06,0.00,0.00
15min,AgWx,beryljct,423,09FEB2018:16:00:00,66.6,13.78,62.8,63.1,63.2,63.6,63.0,13,14,12,0.258,11.7,13.0,10.8,13.79,13.1,279,11,17.0,0.00278,0.00472,49.0,40.8,21,158,0,65.2,12.06,0.00,0.00
15min,AgWx,beryljct,423,09FEB2018:16:15:00,65.6,13.63,62.4,62.5,62.9,63.3,62.4,13,14,13,0.267,12.2,13.2,11.1,10.48,12.3,284,13,16.7,0.00242,0.00425,49.1,41.0,22,137,0,64.6,12.06,0.00,0.00
15min,AgWx,beryljct,423,09FEB2018:16:30:00,64.7,13.51,61.8,61.8,62.2,62.7,61.8,14,14,13,0.251,11.9,13.2,10.8,13.48,13.3,287,11,18.1,0.00235,0.00424,49.0,41.1,22,104,0,63.2,12.06,0.00,0.00
15min,AgWx,beryljct,423,09FEB2018:16:45:00,63.8,13.39,61.5,61.6,61.7,62.0,61.3,13,14,12,0.241,10.8,11.8,9.5,11.64,11.8,281,11,20.3,0.00203,0.00374,49.0,41.3,21,83,0,62.3,12.06,0.00,0.00
15min,AgWx,beryljct,423,09FEB2018:17:00:00,62.9,13.32,60.5,60.7,61.1,61.6,60.7,14,15,13,0.262,11.3,12.2,10.3,8.4,9.9,287,11,13.6,0.00162,0.00311,49.0,41.5,22,64,0,61.4,12.06,0.00,0.00
15min,AgWx,beryljct,423,09FEB2018:17:15:00,62.0,13.25,59.8,60.1,60.5,60.8,59.9,15,15,14,0.266,11.9,12.8,11.1,6.533,8.2,287,8.7,10.5,0.00088,0.00114,48.9,41.7,22,52,0,60.4,12.05,0.00,0.00
15min,AgWx,beryljct,423,09FEB2018:17:30:00,61.1,13.17,58.7,58.8,59.3,60.1,58.7,17,18,15,0.301,13.8,15.3,11.6,7.19,5.9,269,9.9,9.0,0.00061,0.00084,48.9,41.8,22,30,0,58.7,12.05,0.00,0.00
15min,AgWx,beryljct,423,09FEB2018:17:45:00,60.2,13.1,57.8,58.1,58.6,58.9,58.1,18,19,18,0.315,15.7,16.3,14.8,8.4,8.1,271,8.4,9.4,0.00074,0.00096,48.7,42.0,21,20,0,57.9,12.05,0.00,0.00
15min,AgWx,beryljct,423,09FEB2018:18:00:00,59.3,13.07,57.9,58.0,58.0,58.3,57.5,19,19,18,0.301,15.8,16.5,14.9,9.93,8.3,271,6.8,9.9,0.00072,0.00093,48.5,42.2,21,7,0,57.2,12.05,0.00,0.00
15min,AgWx,beryljct,423,09FEB2018:18:15:00,58.5,13.05,55.7,56.0,57.4,58.3,56.0,20,22,18,0.325,16.1,17.7,14.8,6.094,7.2,267,6.6,10.2,0.00062,0.00082,48.4,42.3,21,1,0,56.6,12.05,0.00,0.00
15min,AgWx,beryljct,423,09FEB2018:18:30:00,57.6,13.04,55.7,55.6,55.6,56.0,55.3,21,22,21,0.326,16.8,17.8,16.1,6.16,6.3,257,4.1,6.8,0.00050,0.00068,48.2,42.5,21,0,0,55.6,12.06,0.00,0.00
15min,AgWx,beryljct,423,09FEB2018:18:45:00,56.7,13.03,55.2,55.4,55.2,55.8,54.8,22,23,21,0.324,17.0,18.2,16.4,5.897,5.7,255,3.0,6.4,0.00045,0.00062,47.9,42.6,21,0,0,55.8,12.05,0.00,0.00
15min,AgWx,beryljct,423,09FEB2018:19:00:00,55.9,13.02,54.4,54.4,54.9,55.5,54.4,23,24,22,0.341,17.6,18.4,16.8,6.248,5.9,254,1.8,6.4,0.00045,0.00062,47.7,32.0,0,0,0,55.3,12.05,0.00,0.00
15min,AgWx,beryljct,423,09FEB2018:19:15:00,55.4,13.01,54.9,55.1,54.9,55.4,54.4,23,24,23,0.351,18.1,18.7,17.6,6.029,5.9,256,2.0,6.4,0.00045,0.00062,47.5,42.9,22,0,0,55.0,12.05,0.00,0.00
15min,AgWx,beryljct,423,09FEB2018:19:30:00,55.0,13,54.3,54.4,54.8,55.2,54.2,24,25,23,0.347,18.3,19.0,17.8,5.502,6.5,247,3.5,7.4,0.00049,0.00067,47.4,43.0,21,0,0,55.1,12.06,0.00,0.00
15min,AgWx,beryljct,423,09FEB2018:19:45:00,54.4,12.99,54.8,55.1,53.6,55.1,52.0,26,30,23,0.351,19.5,22.0,17.9,6.379,5.5,221,11,7.4,0.00039,0.00054,47.2,43.1,21,0,0,53.2,12.06,0.00,0.00
15min,AgWx,beryljct,423,09FEB2018:20:00:00,54.3,12.98,56.0,56.4,56.1,56.7,55.0,22,24,22,0.354,18.2,19.3,17.4,5.327,6.8,210,7.8,8.6,0.00054,0.00073,47.0,43.2,22,0,0,54.7,12.06,0.00,0.00
15min,AgWx,beryljct,423,09FEB2018:20:15:00,53.7,12.97,49.5,49.9,52.5,56.3,49.9,28,32,23,0.384,20.2,22.0,18.7,2.653,3.8,182,16,6.4,0.00022,0.00033,46.8,43.3,21,0,0,51.3,12.06,0.00,0.00
15min,AgWx,beryljct,423,09FEB2018:20:30:00,52.3,12.98,47.6,48.3,48.9,49.9,48.1,34,36,31,0.402,21.4,22.5,19.8,2.389,3.4,182,11,5.6,0.00012,0.00021,46.7,43.3,22,0,0,47.1,12.06,0.00,0.00
15min,AgWx,beryljct,423,09FEB2018:20:45:00,50.8,12.97,46.5,46.7,47.9,48.6,46.4,35,40,33,0.411,21.5,23.6,20.2,1.929,1.5,166,27,4.2,-0.00011,-0.00012,46.4,43.4,21,0,0,45.4,12.06,0.00,0.00
15min,AgWx,beryljct,423,09FEB2018:21:00:00,49.3,12.96,48.7,49.1,47.0,49.1,45.7,39,43,34,0.410,23.1,24.7,21.4,7.673,4.8,144,15,7.7,0.00020,0.00029,46.2,43.5,22,0,0,45.0,12.06,0.00,0.00
15min,AgWx,beryljct,423,09FEB2018:21:15:00,48.5,12.94,47.8,48.4,49.2,50.1,48.1,34,36,33,0.409,22.3,22.8,21.7,6.774,6.6,173,8.1,9.3,0.00035,0.00047,45.9,43.6,22,0,0,47.2,12.06,0.00,0.00
15min,AgWx,beryljct,423,09FEB2018:21:30:00,47.8,12.95,48.9,49.5,48.3,49.5,47.4,36,37,34,0.406,22.3,22.7,21.9,7.081,6.5,192,6.9,7.8,0.00033,0.00044,45.7,43.6,21,0,0,46.6,12.06,0.00,0.00
15min,AgWx,beryljct,423,09FEB2018:21:45:00,47.4,12.94,49.5,50.3,49.1,50.4,48.4,34,35,33,0.410,22.0,22.4,21.5,5.393,5.5,177,5.4,7.1,0.00029,0.00041,45.5,43.6,21,0,0,47.0,12.06,0.00,0.00
15min,AgWx,beryljct,423,09FEB2018:22:00:00,47.1,12.93,47.0,47.5,48.6,50.6,47.1,36,38,33,0.415,22.7,23.3,22.0,7.673,6.2,167,6.9,8.2,0.00032,0.00044,45.3,43.6,22,0,0,46.7,12.06,0.00,0.00
15min,AgWx,beryljct,423,09FEB2018:22:15:00,46.7,12.93,47.0,47.5,47.5,47.9,47.1,37,38,36,0.415,22.5,22.8,22.2,6.314,7.5,175,5.4,10.1,0.00037,0.00047,45.0,43.7,22,0,0,45.7,12.06,0.00,0.00
15min,AgWx,beryljct,423,09FEB2018:22:30:00,46.3,12.92,45.8,46.7,47.3,48.5,46.1,38,40,35,0.429,22.7,23.4,22.3,0,3.7,124,74,7.7,0.00014,0.00021,44.7,43.7,22,0,0,45.1,12.06,0.00,0.00
15min,AgWx,beryljct,423,09FEB2018:22:45:00,45.6,12.91,48.9,49.5,46.3,49.5,45.0,39,41,33,0.403,22.4,23.5,21.2,7.936,3.2,293,52,8.2,0.00007,0.00013,44.5,43.7,21,0,0,43.5,12.06,0.00,0.00
15min,AgWx,beryljct,423,09FEB2018:23:00:00,45.7,12.91,47.2,47.7,48.4,49.7,47.5,35,37,33,0.409,22.2,22.7,21.9,5.722,6.9,240,7.8,7.8,0.00036,0.00047,44.3,43.7,22,0,0,47.2,12.06,0.00,0.00
15min,AgWx,beryljct,423,09FEB2018:23:15:00,45.6,12.91,48.4,48.8,47.1,48.9,46.2,37,39,35,0.408,22.5,23.0,22.1,6.533,5.6,217,19,6.8,0.00026,0.00036,44.1,43.7,22,0,0,46.3,12.06,0.00,0.00
15min,AgWx,beryljct,423,09FEB2018:23:30:00,45.6,12.9,47.5,48.2,47.8,49.8,44.9,36,42,33,0.414,22.4,23.7,21.6,6.971,5.0,167,20,7.4,0.00024,0.00034,43.9,43.7,22,0,0,46.3,12.06,0.00,0.00
15min,AgWx,bigpiney,439,09FEB2018:00:00:00,38.2,12.88,38.0,37.8,38.0,38.3,37.7,54,54,53,0.411,22.6,22.9,22.4,12.32,13.4,264,8.4,18.1,0.00027,0.00032,31.2,31.7,13,0,0,0.0,.,0.00,0.00
15min,AgWx,bigpiney,439,09FEB2018:00:15:00,38.4,12.88,38.7,38.2,37.8,38.2,37.3,53,54,52,0.407,22.3,22.5,22.1,15.92,14.2,268,9.1,20.5,0.00028,0.00033,31.2,31.7,13,0,0,0.0,.,0.00,0.00
15min,AgWx,bigpiney,439,09FEB2018:00:30:00,38.4,12.88,38.0,38.0,38.1,38.3,37.8,52,52,51,0.400,21.9,22.1,21.7,11.79,14.5,272,11,20.7,0.00030,0.00035,31.2,31.7,13,0,0,0.0,.,0.00,0.00
15min,AgWx,bigpiney,439,09FEB2018:00:45:00,38.5,12.88,38.4,38.2,38.2,38.5,37.9,51,52,50,0.398,21.7,21.8,21.5,14.51,15.9,269,7.8,20.4,0.00032,0.00037,31.2,31.7,13,0,0,0.0,.,0.00,0.00
15min,AgWx,bigpiney,439,09FEB2018:01:00:00,38.5,12.87,37.7,37.3,37.7,38.2,37.2,52,53,51,0.401,21.7,21.9,21.6,13.94,13.5,265,8.7,17.7,0.00028,0.00033,31.2,31.7,13,0,0,0.0,.,0.00,0.00
15min,AgWx,bigpiney,439,09FEB2018:01:15:00,38.4,12.87,36.3,36.2,36.9,37.3,36.2,54,55,53,0.399,21.9,22.1,21.7,9.8,11.0,265,7.0,14.6,0.00023,0.00027,31.2,31.6,13,0,0,0.0,.,0.00,0.00
15min,AgWx,bigpiney,439,09FEB2018:01:30:00,38.0,12.85,37.3,36.8,36.5,36.9,36.1,55,56,55,0.406,22.0,22.3,21.7,13.53,12.4,261,7.3,16.3,0.00023,0.00028,31.2,31.7,13,0,0,0.0,.,0.00,0.00
15min,AgWx,bigpiney,439,09FEB2018:01:45:00,37.9,12.85,37.8,37.6,37.4,37.6,36.8,54,55,53,0.412,22.2,22.5,22.0,13.7,14.1,270,8.7,20.4,0.00027,0.00032,31.2,31.7,14,0,0,0.0,.,0.00,0.00
15min,AgWx,bigpiney,439,09FEB2018:02:00:00,37.9,12.84,37.1,37.2,37.3,37.6,37.1,55,55,54,0.411,22.5,22.6,22.3,11.99,12.8,268,8.9,17.2,0.00025,0.00030,31.2,31.7,14,0,0,0.0,.,0.00,0.00
15min,AgWx,bigpiney,439,09FEB2018:02:15:00,37.8,12.83,37.3,37.1,37.1,37.4,36.8,54,55,53,0.401,22.1,22.5,21.8,11.16,12.6,263,6.8,16.8,0.00025,0.00030,31.2,31.7,14,0,0,0.0,.,0.00,0.00
15min,AgWx,bigpiney,439,09FEB2018:02:30:00,37.7,12.81,36.9,36.3,36.8,37.2,36.3,54,54,53,0.395,21.5,21.9,21.3,12.1,11.1,259,6.6,14.7,0.00023,0.00028,31.2,31.7,14,0,0,0.0,.,0.00,0.00
15min,AgWx,bigpiney,439,09FEB2018:02:45:00,37.5,12.81,37.2,35.9,36.0,36.5,35.5,55,57,54,0.402,21.5,21.9,21.2,14.12,10.3,254,7.7,16.2,0.00020,0.00025,31.2,31.6,14,0,0,0.0,.,0.00,0.00
15min,AgWx,bigpiney,439,09FEB2018:03:00:00,37.2,12.81,37.6,37.0,36.2,37.0,35.6,56,57,56,0.414,22.1,22.6,21.7,13.57,11.4,249,8.9,16.5,0.00021,0.00026,31.2,31.7,14,0,0,0.0,.,0.00,0.00
15min,AgWx,bigpiney,439,09FEB2018:03:15:00,37.0,12.8,35.6,35.8,36.1,37.1,35.8,56,57,55,0.401,22.0,22.5,21.6,7.19,8.8,260,7.5,13.2,0.00017,0.00022,31.2,31.7,14,0,0,0.0,.,0.00,0.00
15min,AgWx,bigpiney,439,09FEB2018:03:30:00,36.7,12.78,34.8,35.3,35.5,35.9,35.1,57,58,57,0.397,21.8,22.0,21.6,5.765,7.1,262,8.5,10.1,0.00013,0.00017,31.2,31.7,14,0,0,0.0,.,0.00,0.00
15min,AgWx,bigpiney,439,09FEB2018:03:45:00,36.3,12.78,36.2,35.5,34.9,35.5,34.5,58,59,57,0.406,21.6,22.1,21.4,9.34,7.2,259,9.0,14.8,0.00012,0.00016,31.2,31.7,14,0,0,0.0,.,0.00,0.00
15min,AgWx,bigpiney,439,09FEB2018:04:00:00,36.1,12.77,37.1,36.5,36.1,36.5,35.5,57,58,56,0.408,22.2,22.4,22.1,12.63,9.9,258,8.0,13.6,0.00019,0.00023,31.2,31.7,14,0,0,0.0,.,0.00,0.00
15min,AgWx,bigpiney,439,09FEB2018:04:15:00,36.3,12.76,37.2,36.8,36.7,37.1,36.4,56,56,55,0.410,22.4,22.6,22.2,10.46,11.8,253,8.0,16.2,0.00022,0.00027,31.2,31.7,14,0,0,0.0,.,0.00,0.00
15min,AgWx,bigpiney,439,09FEB2018:04:30:00,36.5,12.76,37.2,36.8,36.9,37.1,36.7,55,56,55,0.407,22.3,22.4,22.1,14.71,12.0,253,7.9,19.5,0.00023,0.00028,31.2,31.7,14,0,0,0.0,.,0.00,0.00
15min,AgWx,bigpiney,439,09FEB2018:04:45:00,36.8,12.75,37.9,37.2,37.2,37.7,36.7,54,55,53,0.405,22.1,22.3,22.0,15.67,14.8,250,8.9,25.0,0.00027,0.00032,31.2,31.7,14,0,0,0.0,.,0.00,0.00
15min,AgWx,bigpiney,439,09FEB2018:05:00:00,37.0,12.75,37.8,37.3,37.2,37.4,37.0,54,54,53,0.403,22.0,22.2,21.9,15.06,14.7,251,8.8,21.0,0.00028,0.00032,31.2,31.7,14,0,0,0.0,.,0.00,0.00
15min,AgWx,bigpiney,439,09FEB2018:05:15:00,37.2,12.74,37.7,37.1,37.1,37.5,36.7,53,54,53,0.401,21.8,22.1,21.5,17.58,13.7,258,9.1,19.0,0.00027,0.00031,31.2,31.7,14,0,0,0.0,.,0.00,0.00
15min,AgWx,bigpiney,439,09FEB2018:05:30:00,37.2,12.74,37.4,36.8,36.9,37.2,36.6,54,54,53,0.397,21.6,21.9,21.4,15.19,12.6,255,8.8,21.8,0.00025,0.00030,31.2,31.7,14,0,0,0.0,.,0.00,0.00
15min,AgWx,bigpiney,439,09FEB2018:05:45:00,37.2,12.73,37.6,37.2,36.8,37.2,36.5,53,54,52,0.391,21.3,21.6,21.1,14.18,13.7,257,7.2,18.9,0.00027,0.00031,31.2,31.7,14,0,0,0.0,.,0.00,0.00
15min,AgWx,bigpiney,439,09FEB2018:06:00:00,37.2,12.73,36.9,36.7,36.9,37.3,36.6,52,53,52,0.384,21.1,21.3,20.8,13.94,13.9,256,9.6,21.3,0.00027,0.00032,31.2,31.7,14,0,0,0.0,.,0.00,0.00
15min,AgWx,bigpiney,439,09FEB2018:06:15:00,37.2,12.73,36.7,36.4,36.6,36.8,36.2,53,53,52,0.387,20.8,21.0,20.6,13.88,14.1,256,8.1,20.3,0.00027,0.00032,31.2,31.7,14,0,0,0.0,.,0.00,0.00
15min,AgWx,bigpiney,439,09FEB2018:06:30:00,37.1,12.73,36.9,36.6,36.5,36.8,36.3,53,53,52,0.384,20.9,21.0,20.7,16.75,15.5,248,8.5,22.3,0.00028,0.00033,31.2,31.8,14,0,0,0.0,.,0.00,0.00
15min,AgWx,bigpiney,439,09FEB2018:06:45:00,37.0,12.72,36.3,35.9,36.3,36.7,35.9,53,54,52,0.383,20.8,21.0,20.7,12.17,13.3,257,6.4,18.0,0.00026,0.00030,31.2,31.7,14,0,0,0.0,.,0.00,0.00
15min,AgWx,bigpiney,439,09FEB2018:07:00:00,36.9,12.72,36.3,36.0,35.9,36.1,35.5,54,54,53,0.383,20.7,20.9,20.5,11.73,12.7,259,7.6,18.1,0.00024,0.00029,31.2,31.7,14,0,0,0.0,.,0.00,0.00
15min,AgWx,bigpiney,439,09FEB2018:07:15:00,36.8,12.72,35.7,35.1,35.7,36.1,35.1,54,55,53,0.383,20.7,20.9,20.6,11.11,11.7,260,8.1,15.8,0.00023,0.00027,31.2,31.7,14,1,0,0.0,.,0.00,0.00
15min,AgWx,bigpiney,439,09FEB2018:07:30:00,36.6,12.74,35.9,35.3,35.2,35.6,34.8,55,56,55,0.381,20.7,20.9,20.5,15.59,11.3,262,8.0,17.5,0.00021,0.00026,31.2,31.7,14,4,0,0.0,.,0.00,0.00
15min,AgWx,bigpiney,439,09FEB2018:07:45:00,36.4,13.21,36.0,35.7,35.5,35.9,35.2,54,55,53,0.378,20.5,20.6,20.3,12.89,12.5,257,8.1,19.2,0.00046,0.00096,31.2,31.7,14,30,0,0.0,.,0.00,0.00